Regional Weather Roundup
Issued by NWS Upton, NY

Current Version | Previous Version | Text Only | Print | Product List | Glossary On
Versions: 1 2 3 4 5 6 7 8 9 10 11 12 13 14 15 16 17 18 19 20 21 22 23 24 25 26 27 28 29 30 31 32 33 34 35 36 37 38 39 40 41 42 43 44 45 46 47 48 49 50
000 ASUS41 KOKX 301505 RWROKX REGIONAL WEATHER ROUNDUP NATIONAL WEATHER SERVICE NEW YORK NY 1100 AM EDT TUE SEP 30 2014 NOTE: "FAIR" INDICATES FEW OR NO CLOUDS BELOW 12,000 FEET WITH NO SIGNIFICANT WEATHER AND/OR OBSTRUCTIONS TO VISIBILITY. NYZ071-072-176-178-NJZ106-104-301600- NEW YORK CITY METRO AREA CITY SKY/WX TMP DP RH WIND PRES REMARKS CENTRAL PARK CLOUDY 69 57 65 VRB3 29.98F LAGUARDIA APRT CLOUDY 67 58 72 NE13 29.95F KENNEDY INTL PTSUNNY 70 56 61 E8 29.96F NEWARK/LIBERTY PTSUNNY 70 55 59 N3 29.95F BRNX BOT. GARD N/A 64 59 82 W1 29.98S TETERBORO CLOUDY 69 60 73 E7 29.94F $$ NYZ177-179-078>081-301600- LONG ISLAND NEW YORK CITY SKY/WX TMP DP RH WIND PRES REMARKS FARMINGDALE CLOUDY 66 62 87 E10 29.96F ISLIP CLOUDY 63 60 90 E10 29.95F SHIRLEY LGT RAIN 63 61 93 VRB3 29.99S WESTHAMPTON LGT RAIN 63 61 93 NE6 29.99F MONTAUK POINT N/A 61 59 93 NE9 30.01S $$ NYZ052-065-067-301600- HUDSON VALLEY CITY SKY/WX TMP DP RH WIND PRES REMARKS WHITE PLAINS N/A 62 59 90 VRB7 29.97F FOG NEWBURGH PTSUNNY 68 63 83 SE9 29.99R FOG MONTGOMERY MOSUNNY 71 62 73 NE3 29.96F POUGHKEEPSIE CLOUDY 68 59 73 SE8 29.97S ALBANY CLOUDY 67 57 70 E5 29.98F $$ NJZ001-105-106-008-010-013-015-019>022-104-301600- NEW JERSEY CITY SKY/WX TMP DP RH WIND PRES REMARKS NEWARK/LIBERTY PTSUNNY 70 55 59 N3 29.95F TETERBORO CLOUDY 69 60 73 E7 29.94F CALDWELL CLOUDY 70 60 70 E7 29.96F MORRISTOWN MOSUNNY 72 55 56 SE6 29.96F SOMERVILLE MOSUNNY 73 53 49 CALM 29.93F LINDEN CLOUDY 74 56 54 CALM 29.97F SUSSEX MOSUNNY 72 60 66 S3 29.95F ANDOVER N/A 71 55 56 SE5 29.96F TRENTON SUNNY 72 52 49 CALM 29.94F MILLVILLE CLOUDY 70 58 65 E7 29.94F ATLANTIC CITY CLOUDY 71 56 58 E7 29.95S WRIGHTSTOWN PTSUNNY 68 56 65 SE1 29.93S TOMS RIVER CLOUDY 66 57 72 CALM 29.96R BELMAR CLOUDY 68 54 60 N3 29.95S $$ PAZ047>061-062-071-301600- EASTERN PENNSYLVANIA CITY SKY/WX TMP DP RH WIND PRES REMARKS PHILADELPHIA MOSUNNY 74 56 53 E5 29.94F ALLENTOWN CLOUDY 66 60 81 SE5 29.96S SCRANTON MOSUNNY 71 59 65 VRB7 29.94F $$ CTZ002-004>006-009-010-012-RIZ004-006-007-MAZ004-011-015-301600- SOUTHERN NEW ENGLAND IN CT CITY SKY/WX TMP DP RH WIND PRES REMARKS BRADLEY INTL CLOUDY 61 54 77 N6 30.01F HARTFORD CLOUDY 60 55 83 VRB7 30.00F DANBURY CLOUDY 60 57 89 NE9 30.01S FOG WTRBRY/OXFORD CLOUDY 57 52 82 NE8 30.02S FOG BRIDGEPORT CLOUDY 63 59 87 NE8 29.99F MERIDEN LGT RAIN 60 56 86 N5 30.00F NEW HAVEN CLOUDY 64 57 78 N8 29.99F CHESTER CLOUDY 61 55 82 E6 30.01S GROTON LGT RAIN 59 58 96 N7 29.99F WILLIMANTIC CLOUDY 59 55 87 NE6 30.01F IN RI CITY SKY/WX TMP DP RH WIND PRES REMARKS PROVIDENCE LGT RAIN 58 56 93 NE12 30.03F BLOCK ISLAND CLOUDY 61 55 82 NE10G18 30.00F WESTERLY CLOUDY 59 57 93 NE8 30.00F IN MA CITY SKY/WX TMP DP RH WIND PRES REMARKS BOSTON LGT RAIN 56 55 97 NE8 30.05F WORCESTER CLOUDY 54 53 97 E6 30.03F FOG WESTFIELD CLOUDY 59 54 83 MISG 30.02F PROVINCETOWN CLOUDY 59 57 94 N14 30.01F NANTUCKET LGT RAIN 64 61 90 N9 29.99F $$ ANZ330-335-338-340-345-350-353-355-301600- COASTAL MARINE OBSERVATIONS STATION/POSITION TIME SKY/WX TEMP WIND PRES VSBY WAVE AIR SEA DIR/SP/G HT/PER (UTC) (F) (DEG/KT/KT) (MB) (MI) (FT/S) NY HARB ENTRANCE 1500 67 68 50/ 14/ 16 1014.2 1/ 8 4S FIRE IS 1500 69 N/A 3/ 4 20S FIRE ISLAND 1500 66 67 80/ 12/ 16 1014.1 2/ 8 23SW MTP 1500 N/A 3/ 4 HUDSON CANYON 1500 69 69 60/ 8/ 8 1013.4 2/ 8 EXECUTION ROCKS 1500 66 69 100/ 10/ 17 N/A WESTERN LI SOUND 1500 65 60/ 16/ 17 N/A 3/ 4 CENTRAL LI SOUND 1400 61 69 60/ 12/ 14 N/A 2/ 3 EASTERN LI SOUND 1400 61 67 50/ 12/ 16 N/A ROBBINS REEF 1500 69 300/ 3/ 3 1013.0 $$ >>>>>>>>>>>>>>>>>>>>>>>>>>>> KEY <<<<<<<<<<<<<<<<<<<<<<<<<<< > < > SKY/WX - SKY CONDITION/PRESENT WEATHER < > TMP - TEMPERATURE IN FAHRENHEIT < > DP - DEWPOINT IN FAHRENHEIT < > RH - RELATIVE HUMIDITY IN PERCENT < > WIND - DIRECTION AND SPEED IN MPH < > PRES - MEAN SEA LEVEL PRESSURE IN INCHES OF HG < > WCI - WIND CHILL INDEX < > VSB - VISIBILITY IN MILES < > HX - HEAT INDEX < > TC - TEMPERATURE IN CELSIUS < > VRB - VARIABLE WIND DIRECTION < > < >>>>>>>>>>>>>>>>>>>>>>>>>>>> KEY <<<<<<<<<<<<<<<<<<<<<<<<<<<

USA.gov is the U.S. government's official web portal to all federal, state and local government web resources and services.